"startDT [UTC]","vpos","CH4 [ppm]","stdev(CH4) [ppm]","CO2 [ppm]","stdev(CO2) [ppm]","H2O_reported [%]","stdev(H2O_reported)","CavityPressure [torr]","CavityTemp [C]","OutletValve","CH4_dry [ppm]","CO2_dry [ppm]","DasTemp [C]","EtalonTemp [C]","WarmBoxTemp [C]","MPVPosition","T_ECpre [C]","T_EC1 [C]","T_EC2 [C]","p_inlet [hPa]","p_in [hPa]","p_out [hPa]","T_inlet [C]","RH_inlet [%]","dwpt_inlet [C]","T_vent [C]","RH_vent [%]","dwpt_vent [C]","flow_vent [l min-1]","flow_inlet [l min-1]","dwpt_sample [C]","T_room [C]"
2016-03-03 00:00:00,0.0,1.93365,0.00033,406.577,0.048,0.0967,0.0016,140.000,45.002,31421.16859,1.93549,407.050,33.505,45.070,45.000,0.00,0.08,-272.78,-272.83,-8,510,-941,20.3,3.2,-25.7,20.4,3.2,-25.4,5.73,2.09,-20.3,26.7
2016-03-03 00:01:00,0.0,1.93355,0.00045,406.579,0.026,0.0970,0.0018,140.000,45.001,31420.23883,1.93538,407.055,33.518,45.071,45.000,0.00,0.08,-272.77,-272.83,-8,510,-941,20.3,3.1,-25.8,20.4,3.2,-25.4,5.73,1.92,-20.2,26.7
2016-03-03 00:02:00,0.0,1.93368,0.00044,406.584,0.036,0.0976,0.0016,140.000,45.000,31420.17111,1.93557,407.061,33.551,45.071,45.000,0.00,0.08,-272.76,-272.82,-7,510,-941,20.3,3.2,-25.7,20.4,3.2,-25.4,5.73,1.77,-20.3,26.7
2016-03-03 00:03:00,0.0,1.93334,0.00037,406.556,0.035,0.0969,0.0017,140.000,45.000,31419.92185,1.93519,407.032,33.551,45.070,45.000,0.00,0.08,-272.77,-272.83,-8,510,-941,20.3,3.1,-25.8,20.4,3.2,-25.4,5.73,2.09,-20.3,26.7
2016-03-03 00:04:00,0.0,1.93330,0.00029,406.542,0.023,0.0958,0.0020,139.998,44.999,31419.70320,1.93512,407.011,33.515,45.070,45.000,0.00,0.08,-272.77,-272.84,-9,510,-941,20.3,3.1,-25.8,20.4,3.2,-25.5,5.73,1.94,-20.2,26.7
2016-03-03 00:05:00,0.0,1.93355,0.00046,406.548,0.032,0.0966,0.0016,139.999,44.999,31418.94727,1.93538,407.021,33.502,45.071,45.000,0.00,0.08,-272.77,-272.82,-7,510,-941,20.3,3.1,-25.9,20.4,3.2,-25.5,5.73,1.76,-20.2,26.7
2016-03-03 00:06:00,0.0,1.93358,0.00033,406.553,0.028,0.0953,0.0018,140.000,44.999,31420.30001,1.93541,407.019,33.506,45.071,45.000,0.00,0.08,-272.78,-272.82,-7,510,-941,20.3,3.1,-25.9,20.4,3.2,-25.5,5.73,2.08,-20.2,26.7
2016-03-03 00:07:00,0.0,1.93340,0.00032,406.543,0.023,0.0948,0.0016,139.998,44.999,31420.20155,1.93522,407.007,33.525,45.071,45.000,0.00,0.08,-272.77,-272.83,-8,509,-941,20.3,3.1,-26.0,20.4,3.2,-25.6,5.73,1.95,-20.3,26.7
2016-03-03 00:08:00,0.0,1.93322,0.00033,406.510,0.031,0.0942,0.0012,139.998,44.999,31419.35927,1.93502,406.972,33.546,45.071,45.000,0.00,0.08,-272.77,-272.83,-8,510,-941,20.3,3.1,-26.0,20.4,3.2,-25.6,5.73,1.76,-20.2,26.7
2016-03-03 00:09:00,0.0,1.93309,0.00035,406.511,0.025,0.0945,0.0018,140.000,44.999,31418.24538,1.93490,406.973,33.538,45.071,45.000,0.00,0.08,-272.77,-272.82,-7,510,-941,20.3,3.1,-26.0,20.4,3.2,-25.7,5.73,2.08,-20.2,26.7
2016-03-03 00:10:00,0.0,1.93279,0.00035,406.503,0.039,0.0946,0.0020,139.998,45.000,31417.84574,1.93457,406.966,33.536,45.071,45.000,0.00,0.08,-272.78,-272.83,-7,510,-941,20.3,3.1,-26.0,20.4,3.2,-25.7,5.73,1.96,-20.2,26.7
2016-03-03 00:11:00,0.0,1.93272,0.00035,406.515,0.033,0.0942,0.0017,139.996,45.000,31416.86123,1.93453,406.976,33.518,45.071,45.000,0.00,0.08,-272.77,-272.82,-8,510,-941,20.3,3.1,-25.9,20.4,3.2,-25.6,5.73,1.76,-20.2,26.7
2016-03-03 00:12:00,0.0,1.93285,0.00037,406.505,0.030,0.0947,0.0022,140.001,45.000,31416.53421,1.93464,406.970,33.533,45.071,45.000,0.00,0.08,-272.78,-272.82,-8,510,-941,20.3,3.1,-26.0,20.4,3.2,-25.6,5.73,2.07,-20.2,26.7
2016-03-03 00:13:00,0.0,1.93279,0.00037,406.477,0.032,0.0954,0.0017,139.998,45.000,31417.51402,1.93463,406.942,33.548,45.070,45.000,0.00,0.08,-272.77,-272.83,-7,510,-941,20.3,3.1,-25.9,20.4,3.2,-25.6,5.73,1.97,-20.2,26.7
2016-03-03 00:14:00,0.0,1.93242,0.00036,406.488,0.033,0.0947,0.0015,140.000,45.000,31417.42038,1.93423,406.953,33.549,45.070,45.000,0.00,0.08,-272.77,-272.83,-8,510,-941,20.3,3.1,-26.0,20.4,3.2,-25.6,5.73,1.75,-20.2,26.7
2016-03-03 00:15:00,0.0,1.93240,0.00040,406.466,0.024,0.0944,0.0014,139.999,45.000,31417.28348,1.93420,406.928,33.556,45.070,45.000,0.00,0.08,-272.77,-272.82,-9,510,-941,20.3,3.1,-26.0,20.4,3.1,-25.7,5.73,2.06,-20.2,26.7
2016-03-03 00:16:00,0.0,1.93230,0.00044,406.455,0.028,0.0945,0.0014,140.001,45.000,31418.91874,1.93409,406.918,33.562,45.070,45.000,0.00,0.08,-272.76,-272.82,-8,510,-941,20.3,3.1,-26.0,20.4,3.2,-25.6,5.73,1.99,-20.2,26.7
2016-03-03 00:17:00,0.0,1.93236,0.00045,406.461,0.032,0.0950,0.0020,140.000,45.000,31416.90323,1.93418,406.926,33.577,45.070,45.000,0.00,0.08,-272.77,-272.83,-7,510,-941,20.3,3.1,-26.0,20.4,3.2,-25.6,5.73,1.75,-20.2,26.7
2016-03-03 00:18:00,0.0,1.93171,0.00033,406.419,0.028,0.0950,0.0013,140.000,45.001,31419.65643,1.93353,406.884,33.583,45.070,45.000,0.00,0.08,-272.78,-272.82,-8,510,-941,20.3,3.1,-26.0,20.4,3.2,-25.6,5.73,2.04,-20.2,26.7
2016-03-03 00:19:00,0.0,1.93176,0.00041,406.417,0.027,0.0947,0.0017,140.000,45.000,31418.77382,1.93354,406.880,33.581,45.070,45.000,0.00,0.08,-272.76,-272.83,-8,510,-941,20.3,3.1,-25.9,20.4,3.2,-25.6,5.73,2.00,-20.2,26.7
2016-03-03 00:20:00,0.0,1.93169,0.00038,406.391,0.038,0.0959,0.0020,140.000,45.001,31419.29975,1.93355,406.860,33.575,45.070,45.000,0.00,0.08,-272.77,-272.84,-7,510,-941,20.3,3.1,-25.9,20.4,3.2,-25.5,5.73,1.74,-20.2,26.7
2016-03-03 00:21:00,0.0,1.93158,0.00035,406.394,0.034,0.0961,0.0014,140.003,45.003,31423.20219,1.93339,406.865,33.591,45.070,45.000,0.00,0.08,-272.78,-272.83,-7,510,-941,20.3,3.1,-25.7,20.4,3.2,-25.4,5.73,2.04,-20.2,26.7
2016-03-03 00:22:00,0.0,1.93135,0.00036,406.383,0.031,0.0966,0.0015,139.998,45.003,31425.88653,1.93323,406.856,33.624,45.070,45.000,0.00,0.08,-272.76,-272.83,-8,510,-941,20.3,3.1,-25.8,20.4,3.2,-25.4,5.73,2.01,-20.2,26.7
2016-03-03 00:23:00,0.0,1.93099,0.00031,406.360,0.023,0.0959,0.0018,140.001,45.001,31427.31376,1.93281,406.830,33.625,45.070,45.000,0.00,0.08,-272.77,-272.82,-8,510,-941,20.3,3.1,-25.9,20.4,3.2,-25.5,5.73,1.75,-20.2,26.7
2016-03-03 00:24:00,0.0,1.93094,0.00046,406.373,0.039,0.0962,0.0015,140.000,44.999,31425.60315,1.93278,406.844,33.625,45.070,45.000,0.00,0.08,-272.79,-272.82,-7,510,-941,20.3,3.1,-25.9,20.4,3.2,-25.5,5.73,2.04,-20.2,26.7
2016-03-03 00:25:00,0.0,1.93111,0.00037,406.366,0.035,0.0963,0.0013,140.000,44.999,31422.00009,1.93292,406.837,33.625,45.070,45.000,0.00,0.08,-272.77,-272.83,-7,510,-941,20.3,3.1,-25.8,20.4,3.2,-25.5,5.73,2.01,-20.2,26.7
2016-03-03 00:26:00,0.0,1.93133,0.00039,406.362,0.038,0.0966,0.0017,139.999,44.999,31420.03992,1.93315,406.834,33.624,45.070,45.000,0.00,0.08,-272.77,-272.82,-9,510,-941,20.3,3.1,-25.8,20.4,3.2,-25.4,5.73,1.75,-20.2,26.7
2016-03-03 00:27:00,0.0,1.93154,0.00040,406.376,0.028,0.0970,0.0018,139.999,44.998,31416.60779,1.93338,406.851,33.625,45.070,45.000,0.00,0.08,-272.78,-272.83,-8,510,-941,20.3,3.1,-25.7,20.4,3.2,-25.4,5.73,2.03,-20.2,26.7
2016-03-03 00:28:00,0.0,1.93098,0.00038,406.341,0.036,0.0972,0.0024,140.001,44.998,31416.24523,1.93287,406.816,33.618,45.070,45.000,0.00,0.08,-272.77,-272.83,-7,510,-941,20.3,3.2,-25.7,20.4,3.3,-25.3,5.73,2.01,-20.2,26.7
2016-03-03 00:29:00,0.0,1.93091,0.00041,406.338,0.022,0.0970,0.0015,139.999,44.999,31414.98424,1.93274,406.813,33.576,45.070,45.000,0.00,0.08,-272.76,-272.82,-8,510,-941,20.3,3.2,-25.7,20.4,3.3,-25.3,5.73,1.74,-20.2,26.7
2016-03-03 00:30:00,0.0,1.93060,0.00053,406.323,0.039,0.0969,0.0015,139.997,45.000,31416.81454,1.93243,406.797,33.568,45.071,45.000,0.00,0.08,-272.77,-272.82,-9,510,-941,20.3,3.1,-25.7,20.4,3.2,-25.4,5.73,2.02,-20.2,26.7
2016-03-03 00:31:00,0.0,1.93069,0.00036,406.296,0.040,0.0972,0.0019,139.999,45.003,31417.96679,1.93255,406.773,33.582,45.071,45.000,0.00,0.08,-272.77,-272.83,-7,510,-941,20.3,3.1,-25.7,20.4,3.2,-25.4,5.73,2.02,-20.2,26.7
2016-03-03 00:32:00,0.0,1.93087,0.00043,406.308,0.028,0.0963,0.0014,140.000,45.003,31420.20254,1.93270,406.778,33.579,45.071,45.000,0.00,0.08,-272.76,-272.83,-7,510,-941,20.3,3.1,-25.8,20.4,3.2,-25.4,5.73,1.75,-20.2,26.7
2016-03-03 00:33:00,0.0,1.93112,0.00034,406.333,0.030,0.0963,0.0013,139.999,45.002,31419.59052,1.93294,406.803,33.565,45.071,45.000,0.00,0.08,-272.77,-272.82,-8,509,-941,20.4,3.1,-25.8,20.4,3.2,-25.4,5.73,2.01,-20.2,26.7
2016-03-03 00:34:00,0.0,1.93082,0.00030,406.340,0.027,0.0962,0.0022,139.999,45.001,31420.29810,1.93268,406.812,33.571,45.071,45.000,0.00,0.08,-272.77,-272.83,-8,510,-941,20.3,3.1,-25.8,20.4,3.2,-25.4,5.73,2.04,-20.2,26.7
2016-03-03 00:35:00,0.0,1.93117,0.00047,406.334,0.028,0.0969,0.0016,139.999,45.000,31419.02137,1.93300,406.808,33.585,45.071,45.000,0.00,0.30,-271.10,-272.58,-7,510,-941,20.3,3.1,-25.8,20.4,3.2,-25.4,5.43,1.88,-25.0,26.7
2016-03-03 00:36:00,0.0,1.93076,0.00034,406.316,0.030,0.0967,0.0017,139.998,45.000,31418.90479,1.93260,406.789,33.567,45.071,45.000,0.00,0.08,-272.77,-272.82,-7,510,-941,20.4,3.1,-25.7,20.4,3.2,-25.4,5.73,2.00,-20.2,26.7
2016-03-03 00:37:00,0.0,1.93104,0.00031,406.308,0.028,0.0979,0.0015,140.001,44.999,31415.14333,1.93292,406.786,33.573,45.071,45.000,0.00,0.08,-272.78,-272.83,-8,510,-941,20.3,3.1,-25.8,20.4,3.2,-25.4,5.73,2.05,-20.2,26.7
2016-03-03 00:38:00,0.0,1.93045,0.00036,406.285,0.024,0.0966,0.0022,140.001,45.000,31414.73918,1.93230,406.757,33.578,45.071,45.000,0.00,0.08,-272.77,-272.83,-8,510,-941,20.3,3.1,-25.7,20.4,3.2,-25.4,5.73,1.75,-20.2,26.7
2016-03-03 00:39:00,0.0,1.93100,0.00038,406.323,0.047,0.0966,0.0017,140.000,45.000,31414.98595,1.93281,406.795,33.597,45.070,45.000,0.00,0.08,-272.77,-272.82,-7,510,-941,20.4,3.1,-25.8,20.4,3.2,-25.4,5.73,2.00,-20.2,26.7
2016-03-03 00:40:00,0.0,1.93088,0.00030,406.316,0.054,0.0984,0.0017,139.999,44.998,31414.63923,1.93277,406.800,33.600,45.070,45.000,0.00,0.08,-272.77,-272.82,-8,510,-941,20.4,3.2,-25.6,20.4,3.3,-25.3,5.73,2.05,-20.2,26.7
2016-03-03 00:41:00,0.0,1.93081,0.00031,406.309,0.035,0.0994,0.0014,139.996,44.999,31413.26349,1.93269,406.793,33.574,45.070,45.000,0.00,0.08,-272.77,-272.83,-9,510,-941,20.3,3.2,-25.5,20.4,3.3,-25.2,5.73,1.74,-20.2,26.7
2016-03-03 00:42:00,0.0,1.93091,0.00035,406.329,0.036,0.0985,0.0021,140.002,45.001,31415.42022,1.93277,406.812,33.564,45.070,45.000,0.00,0.08,-272.77,-272.82,-8,510,-941,20.4,3.2,-25.5,20.4,3.3,-25.2,5.73,2.00,-20.2,26.7
2016-03-03 00:43:00,0.0,1.93138,0.00027,406.293,0.025,0.1002,0.0021,140.002,45.001,31416.41577,1.93328,406.783,33.550,45.070,45.000,0.00,0.08,-272.76,-272.83,-7,510,-941,20.4,3.2,-25.4,20.4,3.3,-25.2,5.73,2.04,-20.2,26.7
2016-03-03 00:44:00,0.0,1.93124,0.00028,406.307,0.035,0.0988,0.0013,139.997,45.002,31417.81827,1.93313,406.789,33.510,45.071,45.000,0.00,0.08,-272.77,-272.83,-9,510,-941,20.3,3.2,-25.5,20.4,3.3,-25.2,5.73,1.74,-20.2,26.7
2016-03-03 00:45:00,0.0,1.93114,0.00025,406.324,0.033,0.0999,0.0018,140.001,45.002,31422.59462,1.93305,406.813,33.501,45.071,45.001,0.00,0.08,-272.77,-272.82,-8,510,-941,20.3,3.2,-25.4,20.4,3.3,-25.2,5.73,2.00,-20.2,26.7
2016-03-03 00:46:00,0.0,1.93093,0.00033,406.323,0.028,0.1029,0.0018,139.999,45.000,31420.10723,1.93290,406.826,33.500,45.071,45.001,0.00,0.08,-272.77,-272.83,-7,510,-941,20.4,3.3,-25.2,20.4,3.4,-24.9,5.73,2.04,-20.2,26.7
2016-03-03 00:47:00,0.0,1.93124,0.00033,406.324,0.040,0.1036,0.0015,140.000,45.000,31420.71317,1.93319,406.831,33.536,45.071,45.001,0.00,0.08,-272.77,-272.83,-8,509,-941,20.4,3.3,-25.1,20.4,3.4,-24.8,5.73,1.74,-20.2,26.7
2016-03-03 00:48:00,0.0,1.93080,0.00039,406.281,0.026,0.1041,0.0018,139.998,45.001,31422.12816,1.93281,406.790,33.561,45.071,45.000,0.00,0.08,-272.77,-272.83,-9,510,-941,20.4,3.4,-24.9,20.4,3.4,-24.7,5.73,2.01,-20.2,26.7
2016-03-03 00:49:00,0.0,1.93056,0.00040,406.263,0.030,0.1033,0.0016,139.998,45.002,31425.36295,1.93252,406.769,33.562,45.070,45.000,0.00,0.08,-272.76,-272.82,-8,510,-941,20.4,3.3,-25.1,20.4,3.4,-24.7,5.73,2.03,-20.2,26.7
2016-03-03 00:50:00,0.0,1.93074,0.00032,406.265,0.028,0.1028,0.0018,139.998,45.002,31426.92544,1.93270,406.769,33.563,45.070,45.000,0.00,0.08,-272.77,-272.82,-7,510,-941,20.4,3.3,-25.2,20.4,3.4,-24.8,5.73,1.75,-20.2,26.7
2016-03-03 00:51:00,0.0,1.93097,0.00036,406.287,0.037,0.1017,0.0014,139.999,45.001,31425.37798,1.93288,406.784,33.563,45.070,45.000,0.00,0.08,-272.78,-272.82,-8,510,-941,20.4,3.3,-25.2,20.4,3.4,-24.9,5.73,2.01,-20.2,26.7
2016-03-03 00:52:00,0.0,1.93093,0.00027,406.298,0.027,0.1029,0.0016,139.999,45.001,31426.36299,1.93288,406.801,33.564,45.070,45.000,0.00,0.08,-272.77,-272.82,-9,510,-941,20.4,3.3,-25.1,20.4,3.4,-24.8,5.73,2.03,-20.2,26.7
2016-03-03 00:53:00,0.0,1.93086,0.00041,406.291,0.032,0.1036,0.0013,139.998,45.002,31427.11415,1.93285,406.798,33.562,45.070,45.000,0.00,0.08,-272.77,-272.82,-7,510,-941,20.4,3.3,-25.1,20.5,3.4,-24.7,5.73,1.75,-20.2,26.7
2016-03-03 00:54:00,0.0,1.93109,0.00044,406.288,0.037,0.1033,0.0012,140.001,45.002,31430.00222,1.93303,406.793,33.569,45.070,45.000,0.00,0.08,-272.78,-272.83,-7,510,-941,20.4,3.3,-25.1,20.4,3.4,-24.7,5.73,2.01,-20.2,26.7
2016-03-03 00:55:00,0.0,1.93111,0.00035,406.320,0.031,0.1037,0.0015,139.999,45.002,31431.85804,1.93311,406.827,33.563,45.070,45.000,0.00,0.08,-272.77,-272.83,-9,510,-941,20.4,3.3,-25.1,20.5,3.4,-24.7,5.73,2.04,-20.2,26.7
2016-03-03 00:56:00,0.0,1.93093,0.00031,406.284,0.028,0.1038,0.0014,140.001,45.000,31432.39458,1.93289,406.792,33.562,45.070,45.000,0.00,0.08,-272.76,-272.82,-8,510,-941,20.4,3.3,-25.0,20.4,3.4,-24.7,5.73,1.75,-20.2,26.7
2016-03-03 00:57:00,0.0,1.93083,0.00052,406.296,0.025,0.1036,0.0012,139.999,44.999,31429.71271,1.93282,406.802,33.549,45.071,45.000,0.00,0.08,-272.77,-272.82,-7,510,-941,20.4,3.3,-25.0,20.4,3.4,-24.7,5.73,2.00,-20.2,26.7
2016-03-03 00:58:00,0.0,1.93099,0.00036,406.276,0.036,0.1034,0.0020,139.999,44.999,31430.53881,1.93296,406.782,33.550,45.071,45.000,0.00,0.08,-272.77,-272.83,-8,510,-941,20.4,3.3,-25.0,20.4,3.4,-24.7,5.73,2.04,-20.2,26.7
2016-03-03 00:59:00,0.0,1.93077,0.00036,406.256,0.029,0.1030,0.0015,140.001,44.999,31431.77982,1.93272,406.760,33.560,45.071,45.000,0.00,0.08,-272.76,-272.82,-9,510,-941,20.4,3.3,-25.1,20.4,3.4,-24.7,5.73,1.75,-20.2,26.7
2016-03-03 01:00:00,0.0,1.93082,0.00031,406.245,0.022,0.1026,0.0020,140.000,45.000,31431.74252,1.93277,406.748,33.563,45.070,45.000,0.00,0.08,-272.77,-272.83,-8,510,-941,20.4,3.3,-25.1,20.4,3.4,-24.8,5.73,1.99,-20.2,26.7
2016-03-03 01:01:00,0.0,1.93079,0.00035,406.230,0.028,0.1021,0.0021,139.996,45.001,31432.47897,1.93272,406.728,33.590,45.070,45.000,0.00,0.08,-272.78,-272.83,-7,510,-941,20.4,3.3,-25.2,20.4,3.4,-24.8,5.73,2.06,-20.2,26.7
2016-03-03 01:02:00,0.0,1.93085,0.00036,406.260,0.041,0.1018,0.0017,139.997,45.001,31431.66269,1.93279,406.759,33.611,45.070,45.000,0.00,0.08,-272.77,-272.82,-8,510,-941,20.4,3.3,-25.1,20.5,3.4,-24.8,5.73,1.75,-20.2,26.7
2016-03-03 01:03:00,0.0,1.93085,0.00037,406.248,0.041,0.1028,0.0018,139.999,45.000,31431.97155,1.93280,406.750,33.621,45.070,45.000,0.00,0.08,-272.77,-272.82,-9,510,-941,20.4,3.3,-25.1,20.4,3.4,-24.8,5.73,1.99,-20.2,26.7
2016-03-03 01:04:00,0.0,1.93083,0.00043,406.273,0.029,0.1017,0.0021,139.997,44.999,31431.27287,1.93279,406.771,33.620,45.070,45.000,0.00,0.08,-272.78,-272.83,-7,510,-941,20.4,3.3,-25.1,20.4,3.4,-24.8,5.73,2.06,-20.2,26.7
2016-03-03 01:05:00,0.0,1.93091,0.00039,406.281,0.034,0.1025,0.0019,139.997,45.000,31432.24286,1.93285,406.783,33.618,45.070,45.000,0.00,0.08,-272.77,-272.83,-7,510,-941,20.4,3.3,-25.1,20.4,3.4,-24.8,5.73,1.75,-20.2,26.7
2016-03-03 01:06:00,0.0,1.93120,0.00043,406.296,0.021,0.1038,0.0016,139.999,45.002,31432.17833,1.93316,406.803,33.595,45.070,45.000,0.00,0.08,-272.77,-272.82,-9,510,-941,20.4,3.3,-25.1,20.4,3.4,-24.8,5.73,1.97,-20.2,26.7
2016-03-03 01:07:00,0.0,1.93101,0.00041,406.249,0.025,0.1037,0.0017,139.998,45.001,31430.22982,1.93300,406.757,33.561,45.070,45.000,0.00,0.08,-272.77,-272.83,-8,510,-941,20.4,3.3,-25.1,20.4,3.4,-24.7,5.73,2.06,-20.2,26.7
2016-03-03 01:08:00,0.0,1.93082,0.00036,406.264,0.026,0.1040,0.0013,140.002,45.001,31433.05836,1.93280,406.773,33.554,45.071,45.000,0.00,0.08,-272.77,-272.83,-7,510,-941,20.4,3.3,-25.1,20.4,3.4,-24.7,5.73,1.75,-20.2,26.7
2016-03-03 01:09:00,0.0,1.93108,0.00036,406.245,0.031,0.1034,0.0026,140.000,45.001,31432.32695,1.93303,406.749,33.564,45.071,45.000,0.00,0.08,-272.77,-272.82,-8,510,-941,20.4,3.3,-25.1,20.4,3.4,-24.7,5.73,1.97,-20.2,26.7
2016-03-03 01:10:00,0.0,1.93117,0.00030,406.317,0.036,0.1040,0.0020,139.996,45.000,31429.03819,1.93314,406.825,33.568,45.071,45.000,0.00,0.08,-272.76,-272.82,-9,510,-941,20.4,3.4,-25.0,20.4,3.4,-24.7,5.73,2.07,-20.2,26.7
2016-03-03 01:11:00,0.0,1.93111,0.00028,406.255,0.042,0.1056,0.0016,139.999,45.000,31432.74157,1.93314,406.773,33.565,45.071,45.000,0.00,0.08,-272.77,-272.83,-8,510,-941,20.4,3.4,-25.0,20.5,3.5,-24.6,5.73,1.75,-20.2,26.7
2016-03-03 01:12:00,0.0,1.93082,0.00037,406.247,0.035,0.1057,0.0014,140.000,45.000,31432.75834,1.93281,406.764,33.562,45.071,45.000,0.00,0.08,-272.77,-272.83,-7,510,-941,20.4,3.4,-24.8,20.5,3.5,-24.5,5.73,1.97,-20.2,26.7
2016-03-03 01:13:00,0.0,1.93070,0.00039,406.245,0.032,0.1051,0.0016,139.996,45.000,31432.82878,1.93272,406.760,33.563,45.071,45.000,0.00,0.08,-272.76,-272.83,-8,510,-941,20.4,3.4,-24.9,20.4,3.5,-24.5,5.73,2.06,-20.2,26.7
2016-03-03 01:14:00,0.0,1.93059,0.00036,406.225,0.027,0.1041,0.0012,139.999,45.001,31436.71803,1.93256,406.735,33.546,45.071,45.000,0.00,0.08,-272.77,-272.83,-9,510,-941,20.4,3.4,-25.0,20.4,3.5,-24.6,5.73,1.75,-20.2,26.7
2016-03-03 01:15:00,0.0,1.93100,0.00028,406.281,0.035,0.1042,0.0015,140.001,45.002,31438.88721,1.93299,406.791,33.508,45.071,45.000,0.00,0.08,-272.78,-272.83,-7,510,-941,20.4,3.3,-25.0,20.4,3.4,-24.7,5.73,1.97,-20.2,26.7
2016-03-03 01:16:00,0.0,1.93087,0.00034,406.254,0.032,0.1056,0.0017,139.997,45.002,31439.23464,1.93287,406.769,33.497,45.071,45.000,0.00,0.08,-272.77,-272.82,-7,510,-941,20.3,3.4,-25.0,20.4,3.4,-24.7,5.73,2.07,-20.2,26.7
2016-03-03 01:17:00,0.0,1.93117,0.00045,406.260,0.024,0.1042,0.0017,140.000,45.000,31437.51383,1.93315,406.769,33.454,45.071,45.001,0.00,0.08,-272.77,-272.82,-9,510,-941,20.3,3.4,-25.0,20.4,3.5,-24.7,5.73,1.75,-20.2,26.7
2016-03-03 01:18:00,0.0,1.93100,0.00032,406.277,0.035,0.1036,0.0016,140.001,44.999,31438.88453,1.93295,406.784,33.477,45.071,45.001,0.00,0.08,-272.78,-272.83,-8,510,-941,20.3,3.4,-25.0,20.4,3.5,-24.7,5.73,1.97,-20.2,26.7
2016-03-03 01:19:00,0.0,1.93116,0.00031,406.292,0.028,0.1058,0.0017,139.999,44.997,31435.45677,1.93319,406.810,33.497,45.071,45.001,0.00,0.08,-272.77,-272.82,-7,510,-941,20.3,3.4,-25.0,20.4,3.5,-24.7,5.73,2.07,-20.2,26.7
2016-03-03 01:20:00,0.0,1.93109,0.00044,406.298,0.030,0.1055,0.0019,140.000,44.997,31434.41222,1.93311,406.813,33.496,45.071,45.001,0.00,0.08,-272.76,-272.82,-8,510,-941,20.3,3.4,-24.9,20.4,3.5,-24.6,5.73,1.75,-20.2,26.7
2016-03-03 01:21:00,0.0,1.93107,0.00033,406.287,0.039,0.1055,0.0015,140.001,44.995,31429.26500,1.93305,406.806,33.472,45.071,45.000,0.00,0.08,-272.77,-272.83,-9,510,-941,20.3,3.4,-24.9,20.4,3.5,-24.4,5.73,1.97,-20.2,26.7
2016-03-03 01:22:00,0.0,1.93116,0.00030,406.312,0.035,0.1055,0.0022,140.000,44.996,31425.92261,1.93319,406.827,33.442,45.071,45.000,0.00,0.08,-272.77,-272.83,-8,510,-941,20.3,3.4,-24.9,20.4,3.5,-24.5,5.73,2.07,-20.2,26.7
2016-03-03 01:23:00,0.0,1.93098,0.00033,406.279,0.038,0.1059,0.0021,140.000,45.004,31430.31991,1.93300,406.797,33.438,45.071,45.000,0.00,0.08,-272.76,-272.82,-7,510,-941,20.3,3.4,-24.8,20.4,3.5,-24.5,5.73,1.75,-20.2,26.7
2016-03-03 01:24:00,0.0,1.93105,0.00038,406.270,0.038,0.1074,0.0022,139.999,45.012,31442.46180,1.93309,406.795,33.438,45.070,45.000,0.00,0.08,-272.78,-272.82,-9,510,-941,20.3,3.5,-24.7,20.4,3.5,-24.4,5.73,1.98,-20.2,26.7
2016-03-03 01:25:00,0.0,1.93089,0.00034,406.280,0.033,0.1086,0.0016,140.000,45.014,31452.60553,1.93295,406.811,33.463,45.070,45.000,0.00,0.08,-272.77,-272.83,-9,510,-941,20.3,3.5,-24.7,20.4,3.6,-24.3,5.73,2.06,-20.2,26.7
2016-03-03 01:26:00,0.0,1.93099,0.00040,406.251,0.039,0.1086,0.0016,139.999,45.012,31461.00990,1.93307,406.785,33.487,45.070,45.000,0.00,0.08,-272.76,-272.83,-7,510,-941,20.3,3.5,-24.5,20.4,3.6,-24.3,5.73,1.75,-20.2,26.7
2016-03-03 01:27:00,0.0,1.93075,0.00035,406.253,0.031,0.1086,0.0022,139.998,45.009,31466.23552,1.93282,406.784,33.485,45.071,45.000,0.00,0.08,-272.77,-272.82,-8,509,-941,20.3,3.5,-24.6,20.4,3.6,-24.2,5.73,1.98,-20.2,26.7
2016-03-03 01:28:00,0.0,1.93098,0.00045,406.254,0.035,0.1087,0.0015,140.001,45.004,31466.70930,1.93304,406.787,33.491,45.071,45.000,0.00,0.08,-272.77,-272.83,-9,509,-941,20.3,3.5,-24.6,20.4,3.6,-24.3,5.73,2.06,-20.2,26.7
2016-03-03 01:29:00,0.0,1.93090,0.00050,406.268,0.040,0.1076,0.0017,139.998,45.000,31466.71174,1.93294,406.794,33.471,45.071,45.000,0.00,0.08,-272.77,-272.83,-8,510,-940,20.4,3.5,-24.6,20.4,3.6,-24.3,5.73,1.74,-20.2,26.7
2016-03-03 01:30:00,0.0,1.93108,0.00030,406.298,0.044,0.1085,0.0019,139.999,45.000,31467.03281,1.93316,406.827,33.470,45.071,45.000,0.00,0.08,-272.78,-272.82,-7,510,-940,20.4,3.5,-24.7,20.4,3.6,-24.3,5.73,1.98,-20.2,26.7
2016-03-03 01:31:00,0.0,1.93149,0.00042,406.335,0.034,0.1084,0.0017,139.998,44.999,31465.39447,1.93354,406.866,33.456,45.070,45.000,0.00,0.08,-272.78,-272.83,-8,509,-940,20.3,3.5,-24.6,20.4,3.6,-24.3,5.73,2.05,-20.2,26.7
2016-03-03 01:32:00,0.0,1.93151,0.00035,406.311,0.031,0.1105,0.0021,139.999,44.997,31463.49181,1.93362,406.852,33.468,45.071,45.000,0.00,0.08,-272.77,-272.83,-9,510,-940,20.3,3.6,-24.4,20.4,3.6,-24.1,5.73,1.75,-20.2,26.7
2016-03-03 01:33:00,0.0,1.93117,0.00024,406.322,0.037,0.1103,0.0016,139.996,44.994,31460.02721,1.93328,406.862,33.438,45.071,45.000,0.00,0.08,-272.77,-272.82,-8,510,-940,20.3,3.6,-24.4,20.4,3.6,-24.1,5.73,1.98,-20.2,26.7
2016-03-03 01:34:00,0.0,1.93121,0.00039,406.347,0.039,0.1098,0.0020,139.997,44.993,31454.33722,1.93330,406.885,33.434,45.071,45.000,0.00,0.08,-272.77,-272.82,-8,510,-940,20.3,3.6,-24.4,20.4,3.6,-24.1,5.73,2.05,-20.2,26.7
2016-03-03 01:35:00,0.0,1.93145,0.00042,406.320,0.035,0.1114,0.0017,139.996,44.992,31448.08222,1.93358,406.864,33.413,45.071,45.000,0.00,0.08,-272.77,-272.83,-9,510,-940,20.3,3.6,-24.4,20.4,3.7,-24.0,5.73,1.75,-20.2,26.7
2016-03-03 01:36:00,0.0,1.93191,0.00042,406.334,0.030,0.1109,0.0018,139.999,44.993,31442.39423,1.93398,406.876,33.380,45.071,45.000,0.00,0.08,-272.77,-272.82,-9,510,-940,20.3,3.6,-24.4,20.4,3.7,-24.0,5.73,1.97,-20.2,26.7
2016-03-03 01:37:00,0.0,1.93149,0.00041,406.328,0.033,0.1109,0.0014,140.001,44.993,31438.75693,1.93365,406.871,33.375,45.071,45.000,0.00,0.08,-272.77,-272.82,-8,510,-940,20.3,3.6,-24.4,20.4,3.7,-24.0,5.73,2.08,-20.2,26.7
2016-03-03 01:38:00,0.0,1.93183,0.00034,406.344,0.034,0.1107,0.0017,139.998,44.993,31432.62511,1.93394,406.885,33.375,45.071,45.000,0.00,0.08,-272.77,-272.83,-8,510,-940,20.3,3.6,-24.4,20.4,3.7,-24.0,5.73,1.76,-20.2,26.7
2016-03-03 01:39:00,0.0,1.93182,0.00043,406.340,0.028,0.1117,0.0014,139.998,44.993,31426.53789,1.93392,406.886,33.387,45.071,45.000,0.00,0.08,-272.77,-272.83,-9,510,-940,20.3,3.6,-24.4,20.4,3.7,-24.1,5.73,1.94,-20.2,26.7
2016-03-03 01:40:00,0.0,1.93192,0.00024,406.356,0.037,0.1118,0.0019,139.998,45.000,31425.97016,1.93408,406.902,33.397,45.070,44.999,0.00,0.08,-272.76,-272.82,-8,510,-940,20.3,3.6,-24.3,20.4,3.7,-24.0,5.73,2.09,-20.2,26.7
2016-03-03 01:41:00,0.0,1.93168,0.00047,406.339,0.029,0.1107,0.0020,139.999,45.009,31434.47637,1.93378,406.882,33.385,45.070,44.999,0.00,0.08,-272.77,-272.83,-7,510,-940,20.3,3.6,-24.3,20.4,3.7,-24.0,5.73,1.78,-20.2,26.7
2016-03-03 01:42:00,0.0,1.93135,0.00039,406.290,0.032,0.1113,0.0014,139.998,45.013,31445.45509,1.93349,406.836,33.376,45.070,44.999,0.00,0.08,-272.78,-272.83,-8,510,-940,20.3,3.6,-24.3,20.4,3.7,-24.0,5.73,1.89,-20.2,26.6
2016-03-03 01:43:00,0.0,1.93150,0.00034,406.318,0.026,0.1107,0.0017,139.998,45.011,31450.91928,1.93360,406.859,33.368,45.070,45.000,0.00,0.08,-272.77,-272.82,-9,510,-940,20.3,3.6,-24.3,20.4,3.7,-24.1,5.73,2.11,-20.3,26.6
2016-03-03 01:44:00,0.0,1.93118,0.00040,406.288,0.025,0.1110,0.0023,140.001,45.007,31456.54944,1.93330,406.831,33.348,45.071,45.000,0.00,0.08,-272.77,-272.82,-8,510,-940,20.3,3.6,-24.3,20.4,3.7,-24.1,5.73,1.81,-20.3,26.6
2016-03-03 01:45:00,0.0,1.93121,0.00042,406.314,0.030,0.1124,0.0011,139.998,45.002,31455.94065,1.93333,406.863,33.329,45.071,45.001,0.00,0.08,-272.77,-272.83,-7,510,-940,20.3,3.6,-24.3,20.4,3.7,-24.0,5.73,1.85,-20.3,26.7